Weather History for Galliano, LA

Change the Weather History Date:

Sunday, November 18, 2012

  Actual Average (KAXO) Record (KAXO)
Temperature  
Mean Temperature 54 °F -  
Max Temperature 68 °F 66 °F 75 °F (2003)
Min Temperature 41 °F 62 °F 51 °F (2000)
Degree Days  
Heating Degree Days 10    
Growing Degree Days 4 (Base 50)    
Moisture  
Dew Point 47 °F    
Average Humidity 82    
Maximum Humidity 100    
Minimum Humidity 46    
Precipitation  
Precipitation 0.00 in - - ()
Sea Level Pressure  
Sea Level Pressure 30.27 in    
Wind  
Wind Speed 5 mph (North)    
Max Wind Speed 13 mph    
Max Gust Speed 16 mph    
Visibility 10 miles    
Events      
Averages and records for this station are not official NWS values.
T = Trace of Precipitation, MM = Missing Value Source: NWS Daily Summary

Daily Weather History Graph

Daily Weather History Graph

Search for Another Location

Airport:

Trip Planner

Search our weather history database for the weather conditions in past years. The results will help you decide how hot, cold, wet, or windy it might be!

Date:

Astronomy

Nov. 18, 2012 Rise Set
Actual Time 6:27 AM CST 5:04 PM CST
Civil Twilight 6:02 AM CST 5:29 PM CST
Nautical Twilight 5:33 AM CST 5:58 PM CST
Astronomical Twilight 5:05 AM CST 6:27 PM CST
Moon 10:59 AM CST (11/18) 10:17 PM CST (11/18)
Length of Visible Light 11h 27m
Length of Day
10h 36m
Waxing Crescent, 30% of the Moon is Illuminated
Nov 18
Waxing Crescent
Nov 20
First Quarter
Nov 28
Full
Dec 6
Last Quarter
Dec 13
New

Hourly Weather History & Observations

Time (CST) Temp. Windchill Dew Point Humidity Pressure Visibility Wind Dir Wind Speed Gust Speed Precip Events Conditions
12:15 AM 41.0 °F - 41.0 °F 100% 30.30 in 5.0 mi Calm Calm - N/A   Clear
12:35 AM 42.8 °F 41.1 °F 42.8 °F 100% 30.30 in 10.0 mi NNW 3.5 mph - N/A   Clear
12:55 AM 42.8 °F - 42.8 °F 100% 30.29 in 10.0 mi Calm Calm - N/A   Clear
1:15 AM 42.8 °F - 42.8 °F 100% 30.28 in 5.0 mi Calm Calm - N/A   Clear
1:35 AM 42.8 °F 40.1 °F 42.8 °F 100% 30.28 in 7.0 mi NW 4.6 mph - N/A   Clear
1:55 AM 44.6 °F 42.2 °F 44.6 °F 100% 30.28 in 10.0 mi North 4.6 mph - N/A   Clear
2:15 AM 44.6 °F 42.2 °F 44.6 °F 100% 30.27 in 7.0 mi North 4.6 mph - N/A   Clear
2:35 AM 44.6 °F 42.2 °F 44.6 °F 100% 30.27 in 10.0 mi North 4.6 mph - N/A   Clear
2:55 AM 44.6 °F 42.2 °F 44.6 °F 100% 30.27 in 10.0 mi North 4.6 mph - N/A   Clear
3:15 AM 44.6 °F - 44.6 °F 100% 30.27 in 10.0 mi Calm Calm - N/A   Unknown
3:35 AM 44.6 °F 42.2 °F 44.6 °F 100% 30.27 in 7.0 mi North 4.6 mph - N/A   Unknown
3:55 AM 44.6 °F 42.2 °F 44.6 °F 100% 30.27 in 3.0 mi North 4.6 mph - N/A   Mist
4:15 AM 44.6 °F 42.2 °F 44.6 °F 100% 30.27 in 7.0 mi North 4.6 mph - N/A   Unknown
4:35 AM 44.6 °F 40.2 °F 44.6 °F 100% 30.27 in 7.0 mi NNW 8.1 mph - N/A   Unknown
4:55 AM 44.6 °F 43.1 °F 44.6 °F 100% 30.27 in 10.0 mi NNW 3.5 mph - N/A   Unknown
5:15 AM 44.6 °F 43.1 °F 44.6 °F 100% 30.28 in 10.0 mi North 3.5 mph - N/A   Unknown
5:35 AM 44.6 °F 40.7 °F 44.6 °F 100% 30.28 in 10.0 mi North 6.9 mph - N/A   Unknown
5:55 AM 44.6 °F 40.7 °F 44.6 °F 100% 30.28 in 10.0 mi North 6.9 mph - N/A   Unknown
6:15 AM 44.6 °F 41.4 °F 44.6 °F 100% 30.28 in 10.0 mi NNW 5.8 mph - N/A   Unknown
6:35 AM 44.6 °F 43.1 °F 44.6 °F 100% 30.28 in 10.0 mi North 3.5 mph - N/A   Unknown
6:55 AM 44.6 °F 41.4 °F 44.6 °F 100% 30.28 in 7.0 mi North 5.8 mph - N/A   Unknown
7:15 AM 48.2 °F - 48.2 °F 100% 30.28 in 10.0 mi North 6.9 mph - N/A   Unknown
7:35 AM 53.6 °F - 51.8 °F 94% 30.29 in 10.0 mi North 8.1 mph - N/A   Unknown
7:55 AM 53.6 °F - 51.8 °F 94% 30.29 in 10.0 mi NNE 8.1 mph - N/A   Unknown
8:15 AM 55.4 °F - 53.6 °F 94% 30.30 in 10.0 mi North 8.1 mph - N/A   Unknown
8:35 AM 57.2 °F - 53.6 °F 88% 30.30 in 10.0 mi NNE 10.4 mph - N/A   Unknown
8:55 AM 59.0 °F - 53.6 °F 82% 30.30 in 10.0 mi NNE 8.1 mph - N/A   Unknown
9:15 AM 59.0 °F - 53.6 °F 82% 30.30 in 10.0 mi North 8.1 mph - N/A   Unknown
9:35 AM 60.8 °F - 53.6 °F 77% 30.30 in 10.0 mi North 9.2 mph - N/A   Unknown
9:55 AM 60.8 °F - 51.8 °F 72% 30.30 in 10.0 mi NNE 8.1 mph - N/A   Unknown
10:15 AM 60.8 °F - 51.8 °F 72% 30.31 in 10.0 mi North 10.4 mph - N/A   Unknown
10:35 AM 62.6 °F - 51.8 °F 68% 30.30 in 10.0 mi North 9.2 mph - N/A   Unknown
10:55 AM 62.6 °F - 51.8 °F 68% 30.29 in 10.0 mi North 11.5 mph - N/A   Unknown
11:15 AM 64.4 °F - 51.8 °F 64% 30.29 in 10.0 mi NNE 10.4 mph - N/A   Unknown
11:35 AM 64.4 °F - 50.0 °F 59% 30.28 in 10.0 mi North 8.1 mph - N/A   Unknown
11:55 AM 64.4 °F - 50.0 °F 59% 30.27 in 10.0 mi North 11.5 mph - N/A   Unknown
12:15 PM 64.4 °F - 50.0 °F 59% 30.27 in 10.0 mi North 10.4 mph - N/A   Unknown
12:35 PM 66.2 °F - 50.0 °F 56% 30.26 in 10.0 mi North 12.7 mph - N/A   Unknown
12:55 PM 66.2 °F - 48.2 °F 52% 30.25 in 10.0 mi NE 9.2 mph 16.1 mph N/A   Unknown
1:15 PM 68.0 °F - 46.4 °F 46% 30.25 in 10.0 mi NNE 11.5 mph - N/A   Unknown
1:35 PM 68.0 °F - 46.4 °F 46% 30.24 in 10.0 mi NNE 11.5 mph 16.1 mph N/A   Clear
1:55 PM 66.2 °F - 44.6 °F 46% 30.25 in 10.0 mi NNE 12.7 mph - N/A   Clear
2:15 PM 66.2 °F - 46.4 °F 49% 30.25 in 10.0 mi NNE 10.4 mph - N/A   Clear
2:35 PM 66.2 °F - 44.6 °F 46% 30.25 in 10.0 mi NNE 11.5 mph - N/A   Clear
2:55 PM 66.2 °F - 44.6 °F 46% 30.24 in 10.0 mi NNE 9.2 mph - N/A   Clear
3:15 PM 66.2 °F - 46.4 °F 49% 30.25 in 10.0 mi NNE 9.2 mph - N/A   Unknown
3:35 PM 66.2 °F - 46.4 °F 49% 30.25 in 10.0 mi NNE 8.1 mph - N/A   Unknown
3:55 PM 64.4 °F - 46.4 °F 52% 30.25 in 10.0 mi NNE 9.2 mph - N/A   Unknown
4:15 PM 64.4 °F - 48.2 °F 56% 30.25 in 10.0 mi NNE 6.9 mph - N/A   Unknown
4:35 PM 64.4 °F - 46.4 °F 52% 30.25 in 10.0 mi NNE 6.9 mph - N/A   Unknown
4:55 PM 62.6 °F - 46.4 °F 55% 30.26 in 10.0 mi NNE 4.6 mph - N/A   Unknown
5:15 PM 60.8 °F - 48.2 °F 63% 30.25 in 10.0 mi NNE 3.5 mph - N/A   Unknown
5:35 PM 59.0 °F - 48.2 °F 67% 30.25 in 10.0 mi NE 4.6 mph - N/A   Unknown
5:55 PM 59.0 °F - 48.2 °F 67% 30.26 in 10.0 mi Calm Calm - N/A   Unknown
6:15 PM 55.4 °F - 48.2 °F 77% 30.27 in 10.0 mi Calm Calm - N/A   Unknown
6:35 PM 51.8 °F - 48.2 °F 88% 30.27 in 10.0 mi Calm Calm - N/A   Unknown
6:55 PM 51.8 °F - 48.2 °F 88% 30.27 in 10.0 mi Calm Calm - N/A   Unknown
7:15 PM 51.8 °F - 48.2 °F 88% 30.27 in 10.0 mi Calm Calm - N/A   Unknown
7:35 PM 50.0 °F - 46.4 °F 87% 30.27 in 10.0 mi Calm Calm - N/A   Unknown
7:55 PM 50.0 °F - 46.4 °F 87% 30.28 in 10.0 mi Calm Calm - N/A   Unknown
8:15 PM 48.2 °F - 48.2 °F 100% 30.29 in 10.0 mi Calm Calm - N/A   Unknown
8:35 PM 48.2 °F - 48.2 °F 100% 30.29 in 10.0 mi Calm Calm - N/A   Unknown
8:55 PM 50.0 °F - 48.2 °F 94% 30.29 in 10.0 mi Calm Calm - N/A   Unknown
9:15 PM 48.2 °F - 46.4 °F 93% 30.29 in 10.0 mi Calm Calm - N/A   Unknown
9:35 PM 46.4 °F - 46.4 °F 100% 30.29 in 10.0 mi Calm Calm - N/A   Unknown
9:55 PM 46.4 °F - 46.4 °F 100% 30.28 in 10.0 mi Calm Calm - N/A   Unknown
10:15 PM 46.4 °F - 44.6 °F 93% 30.28 in 10.0 mi Calm Calm - N/A   Unknown
10:35 PM 46.4 °F 45.2 °F 46.4 °F 100% 30.28 in 10.0 mi North 3.5 mph - N/A   Unknown
11:15 PM 46.4 °F 45.2 °F 44.6 °F 93% 30.27 in 10.0 mi NNE 3.5 mph - N/A   Unknown
11:35 PM 46.4 °F 44.3 °F 46.4 °F 100% 30.26 in 10.0 mi NNE 4.6 mph - N/A   Unknown
11:55 PM 50.0 °F - 50.0 °F 100% 30.27 in 10.0 mi North 5.8 mph - N/A   Unknown